OBJECT V, 64895

Orbit data source: Space-Track

You're viewing an Uncataloged Satellite

Recently launched and/or uncataloged satellites may have evolving metadata. Metadata may include but not limited to: Owner, Maufacturer, Bus, Motor, and Mission.

OBJECT V, 64895 is a satellite in SSO that was launched on Fri, 25 Jul 2025 UTC via a SOYUZ-2-1B launch vehicle from the Vostochny Cosmodrome (VOSTO). Unknown objects in Earth's orbit typically refer to objects detected orbiting the Earth but have not yet been identified or cataloged. These objects could be anything from previously untracked satellites, spent rocket stages, debris from satellite collisions, or even natural meteoroids temporarily captured by Earth's gravity.

Loading next visibility...
Identifier
64895, 2025-155V
Orbit
SSO
Country
Flag of TBDTBD
Related business
None
Manufacturer
Unknown
Mission
Operational Commercial Technology
Bus & Motor
Unknown
Mass
Unknown
Launch date (UTC)
2025-07-25 (8 months ago)
Launch vehicle
SOYUZ-2-1B
Launch site
Vostochny Cosmodrome (VOSTO)
Object type
Unknown
Shape & HBR
Box, 1.1 m
Radar Cross Section
0.035 m², Small (<0.1 m²)

Expand to show TLE details & history
Last TLE update: 9 hours ago

TLE from 9 hours ago
0 OBJECT V
1 64895U 25155V   26073.90152273  .00013543  00000-0  50182-3 0  9992
2 64895  97.4483  42.2859 0008659 137.4068 222.7845 15.27722184 66344
Epoch: 2026-03-14T21:38Z
TLE epoch observation values (Epoch: 2026-03-14T21:38:11.563Z)
Latitude
0.00003°
Longitude
-94.77834°
Altitude
490.086 km
Speed
7.618 km/s
True Right ascension
02h 49m 08s
True Declination
0° 00' 00"
Sunlit
Object was in daylight at epoch
Visualization orbit readout
Latitude
Unknown
Longitude
Unknown
Altitude
Unknown
Speed
Unknown
Apparent Right ascension
Unknown
Apparent Declination
Unknown
Sunlit
N/A
Visualization observer readout
Local Sidereal Time
10:44:54
Azimuth
Unknown
Elevation
Unknown
Doppler factor
Unknown
Orbital elements
Apogee altitude
485.519 km
Perigee altitude
473.643 km
Semi-major axis
6,857.718 km
Eccentricity
0.00087
Inclination
97.4483°
RAAN
42.2859°
Arg. of periapsis
137.4068°
True anomaly
222.71716°
Mean anomaly
222.7845°
Eccentric anomaly
222.75082°
Mean motion
3.82185 °/min
Orbital period
94.2 mins
BSTAR
0.00050182
Loading maneuver chart data...
Computing Atmospheric mass density...
Loading historical data...
Loading historical data...
Loading historical data...
Loading historical data...
Loading historical data...
Loading historical data...
Loading historical data...

Documentation

Showing up to 5 results
|